CZ-4 DEB, 26432

Orbit data source: Space-Track

CZ-4 DEB, 26432 is space debris in SSO originally from a launch on Thu, 14 Oct 1999 UTC launched from the Taiyaun Space Center, China (TSC). Debris objects in space refer to the collection of defunct objects orbiting the Earth. Examples of debris include non-operational satellites, rocket bodies, and fragments generated from explosions, collisions, or faulty payload assembly.

Loading next visibility...
Identifier
26432, 1999-057KD
Orbit
SSO
Country
Flag of CNCN / PRC
Related business
Manufacturer
Unknown
Mission
Spacecraft
Bus & Motor
Unknown
Mass
Unknown
Launch date (UTC)
1999-10-14 (26 years ago)
Launch vehicle
Unknown
Launch site
Taiyaun Space Center, China (TSC)
Object type
Payload
Rocket body
Debris
Shape & HBR
Unknown shape, 0.1 m
Radar Cross Section
Small (<0.1 m²)

Expand to show TLE details & history
Last TLE update: 20 hours ago

TLE from 20 hours ago
0 CZ-4 DEB
1 26432U 99057KD  25349.87301414  .00013618  00000-0  14520-2 0  9991
2 26432  98.5490 111.8537 0062085  35.2041 325.3250 14.87573567344459
Epoch: 2025-12-15T20:57Z
TLE epoch observation values (Epoch: 2025-12-15T20:57:08.421Z)
Latitude
-0.00006°
Longitude
72.80328°
Altitude
572.954 km
Speed
7.594 km/s
True Right ascension
07h 27m 24s
True Declination
0° 00' 00"
Sunlit
Object was in full shadow at epoch
Visualization orbit readout
Latitude
Unknown
Longitude
Unknown
Altitude
Unknown
Speed
Unknown
Apparent Right ascension
Unknown
Apparent Declination
Unknown
Sunlit
N/A
Visualization observer readout
Local Sidereal Time
15:51:46
Azimuth
Unknown
Elevation
Unknown
Doppler factor
Unknown
Orbital elements
Apogee altitude
645.92 km
Perigee altitude
559.241 km
Semi-major axis
6,980.717 km
Eccentricity
0.00621
Inclination
98.549°
RAAN
111.8537°
Arg. of periapsis
35.2041°
True anomaly
324.91765°
Mean anomaly
325.325°
Eccentric anomaly
325.12159°
Mean motion
3.72129 °/min
Orbital period
96.74 mins
BSTAR
0.001452
Loading maneuver chart data...
Computing Atmospheric mass density...

Documentation

Showing up to 5 results
|